Regional Weather Roundup
Issued by NWS

Home | Current Version | Previous Version | Graphics & Text | Print | Product List | Glossary On
Versions: 1 2 3 4 5 6 7 8 9 10 11 12 13 14 15 16 17 18 19 20 21 22 23 24 25 26 27 28 29 30 31 32 33 34 35 36 37 38 39 40 41 42 43 44 45 46 47 48 49 50
000
ASUS43 KBIS 221220
RWRND

NORTH DAKOTA REGIONAL WEATHER ROUNDUP
NATIONAL WEATHER SERVICE BISMARCK ND
700 AM CDT MON SEP 22 2014

NOTE: "FAIR" INDICATES FEW OR NO CLOUDS BELOW 12,000 FEET WITH NO
SIGNIFICANT WEATHER AND/OR OBSTRUCTIONS TO VISIBILITY.


NDZ001>003-009>011-017-221300-
NORTHWEST NORTH DAKOTA

CITY           SKY/WX    TMP DP  RH WIND       PRES   REMARKS
WILLISTON      CLEAR     40  36  86 N5        30.06F
6HR MIN TEMP:  39; 6HR MAX TEMP:  49;

MINOT          CLEAR     49  40  71 SW6       30.10F
MINOT AFB      CLEAR     48  42  81 S5        30.10S
$$

NDZ018>021-031>035-040>046-221300-
SOUTHWEST NORTH DAKOTA

CITY           SKY/WX    TMP DP  RH WIND       PRES   REMARKS
BISMARCK       CLEAR     44  41  89 NE8       30.16F
6HR MIN TEMP:  43; 6HR MAX TEMP:  46;

DICKINSON      CLEAR     45  38  76 S13       30.07F
GARRISON         N/A     45  42  89 SE5       30.13S
6HR MIN TEMP:  43; 6HR MAX TEMP:  50;

HETTINGER ARPT CLEAR     47  38  71 SE3       30.12F
$$

NDZ004>008-012>016-024-026-027-054-221300-
NORTHEAST NORTH DAKOTA

CITY           SKY/WX    TMP DP  RH WIND       PRES   REMARKS
GRAND FORKS    CLEAR     45  43  93 S7        30.14S
GRND FRKS AFB  CLEAR     47  47  97 SW6       30.14F
DEVILS LAKE    CLEAR     54  43  66 SW9       30.13F
$$

NDZ022-023-025-028>030-036>039-047>053-221300-
SOUTHEAST NORTH DAKOTA

CITY           SKY/WX    TMP DP  RH WIND       PRES   REMARKS
FARGO          CLEAR     48  45  89 S7        30.19S
6HR MIN TEMP:  47; 6HR MAX TEMP:  52;

JAMESTOWN      CLEAR     45  42  89 S5        30.17S
$$




USA.gov is the U.S. government's official web portal to all federal, state and local government web resources and services.